FW9328 Weather Reports


Display with metric or nautical units.
time (UTC)temp
F
wind
direction
speed
MPH
gust
MPH
rain 1hr
in
rain 24hr
in
rain mn
in
humidity
%
barometer
mb
20210618095044 68 0 0.0 3.0 0.00 0.00 0.00 43 1017.7
20210618094617 69 327 1.0 3.0 0.00 0.00 0.00 40 1017.7
20210618094044 69 0 0.0 2.0 0.00 0.00 0.00 38 1017.6
20210618093541 69 309 0.0 4.0 0.00 0.00 0.00 37 1017.6
20210618093115 69 0 1.0 4.0 0.00 0.00 0.00 34 1017.6
20210618092543 69 0 0.0 3.0 0.00 0.00 0.00 37 1017.5
20210618092042 69 0 0.0 1.0 0.00 0.00 0.00 37 1017.5
20210618091612 70 0 0.0 1.0 0.00 0.00 0.00 38 1017.5
20210618091057 70 0 0.0 2.0 0.00 0.00 0.00 37 1017.4
20210618090539 70 0 0.0 2.0 0.00 0.00 0.00 35 1017.4
20210618090138 70 306 0.0 3.0 0.00 0.00 0.00 36 1017.5
20210618085539 70 0 0.0 4.0 0.00 0.00 0.00 36 1017.5
20210618085050 69 0 1.0 4.0 0.00 0.00 0.00 40 1017.4
20210618084713 69 303 1.0 4.0 0.00 0.00 0.00 38 1017.4
20210618084043 69 0 0.0 2.0 0.00 0.00 0.00 43 1017.5
20210618083543 69 242 0.0 1.0 0.00 0.00 0.00 44 1017.5
20210618083128 69 0 0.0 1.0 0.00 0.00 0.00 42 1017.6
20210618082555 69 0 0.0 1.0 0.00 0.00 0.00 40 1017.5
20210618082050 70 0 0.0 1.0 0.00 0.00 0.00 39 1017.5
20210618081623 70 0 0.0 3.0 0.00 0.00 0.00 36 1017.5
20210618081050 69 285 0.0 3.0 0.00 0.00 0.00 38 1017.5
20210618080545 69 213 1.0 2.0 0.00 0.00 0.00 38 1017.5
20210618080118 69 0 0.0 2.0 0.00 0.00 0.00 38 1017.5
20210618075542 69 0 0.0 2.0 0.00 0.00 0.00 40 1017.5
20210618075039 68 205 0.0 2.0 0.00 0.00 0.00 40 1017.5
20210618074631 69 0 0.0 2.0 0.00 0.00 0.00 44 1017.5
20210618074043 69 0 0.0 2.0 0.00 0.00 0.00 45 1017.6
20210618073548 69 0 0.0 1.0 0.00 0.00 0.00 43 1017.6
20210618073048 69 0 0.0 1.0 0.00 0.00 0.00 46 1017.5
20210618072546 69 0 0.0 2.0 0.00 0.00 0.00 45 1017.5
20210618072050 69 200 0.0 2.0 0.00 0.00 0.00 46 1017.7
20210618071626 69 0 0.0 2.0 0.00 0.00 0.00 45 1017.7
20210618071040 69 0 0.0 3.0 0.00 0.00 0.00 44 1017.6
20210618070546 69 271 1.0 3.0 0.00 0.00 0.00 43 1017.7
20210618070105 69 0 0.0 2.0 0.00 0.00 0.00 43 1017.6
20210618065545 70 206 0.0 2.0 0.00 0.00 0.00 44 1017.7
20210618065041 70 0 0.0 2.0 0.00 0.00 0.00 43 1017.6
20210618064620 70 0 0.0 1.0 0.00 0.00 0.00 46 1017.7
20210618064047 70 0 0.0 1.0 0.00 0.00 0.00 42 1017.7
20210618063541 71 0 0.0 1.0 0.00 0.00 0.00 42 1017.7
20210618063152 71 0 0.0 1.0 0.00 0.00 0.00 43 1017.7
20210618062544 71 0 0.0 1.0 0.00 0.00 0.00 40 1017.7
20210618062044 71 0 0.0 1.0 0.00 0.00 0.00 43 1017.7
20210618061648 72 0 0.0 0.0 0.00 0.00 0.00 43 1017.7
20210618061040 72 0 0.0 1.0 0.00 0.00 0.00 42 1017.7
20210618060617 72 0 0.0 2.0 0.00 0.00 0.00 40 1017.8
20210618060102 72 0 0.0 2.0 0.00 0.00 0.00 39 1017.9
20210618055547 72 0 0.0 3.0 0.00 0.00 0.00 39 1017.9
20210618055108 72 0 0.0 3.0 0.00 0.00 0.00 40 1017.8
20210618054645 73 248 0.0 1.0 0.00 0.00 0.00 42 1017.9
20210618054041 73 0 0.0 1.0 0.00 0.00 0.00 40 1017.8
20210618053609 73 0 0.0 2.0 0.00 0.00 0.00 39 1017.9
20210618053206 73 260 1.0 2.0 0.00 0.00 0.00 40 1017.9
20210618052556 74 0 0.0 2.0 0.00 0.00 0.00 40 1017.9
20210618052050 74 0 0.0 3.0 0.00 0.00 0.00 39 1017.9
20210618051723 74 0 1.0 3.0 0.00 0.00 0.00 37 1018.1
20210618051048 74 219 0.0 1.0 0.00 0.00 0.00 38 1018.0
20210618050540 75 0 0.0 2.0 0.00 0.00 0.00 36 1018.1
20210618050346 75 0 0.0 2.0 0.00 0.00 0.00 37 1018.2
20210618045540 75 0 0.0 1.0 0.00 0.00 0.00 36 1018.3
20210618045039 75 0 0.0 1.0 0.00 0.00 0.00 36 1018.2
20210618044614 76 0 0.0 2.0 0.00 0.00 0.00 36 1018.2
20210618044041 76 0 0.0 2.0 0.00 0.00 0.00 36 1018.3
20210618043546 76 0 0.0 1.0 0.00 0.00 0.00 35 1018.4
20210618043152 76 0 0.0 1.0 0.00 0.00 0.00 36 1018.2
20210618042540 76 0 0.0 2.0 0.00 0.00 0.00 37 1018.3
20210618042039 76 0 0.0 2.0 0.00 0.00 0.00 36 1018.3
20210618041638 76 127 0.0 2.0 0.00 0.00 0.00 35 1018.3
20210618041040 77 0 0.0 2.0 0.00 0.00 0.00 34 1018.2
20210618040549 77 0 0.0 2.0 0.00 0.00 0.00 35 1018.2
20210618040157 78 0 0.0 4.0 0.00 0.00 0.00 34 1018.1
20210618035539 78 0 0.0 4.0 0.00 0.00 0.00 35 1018.1
20210618035052 79 41 1.0 3.0 0.00 0.00 0.00 35 1018.1
20210618034553 80 350 0.0 2.0 0.00 0.00 0.00 33 1017.9
20210618034043 80 0 0.0 3.0 0.00 0.00 0.00 28 1017.9
20210618033550 80 11 1.0 3.0 0.00 0.00 0.00 31 1017.8
20210618033112 80 352 1.0 4.0 0.00 0.00 0.00 30 1017.7
20210618032543 80 289 1.0 4.0 0.00 0.00 0.00 26 1017.7
20210618032039 80 292 2.0 4.0 0.00 0.00 0.00 28 1017.5
20210618031649 80 0 0.0 3.0 0.00 0.00 0.00 29 1017.5
20210618031057 80 234 1.0 2.0 0.00 0.00 0.00 30 1017.4
20210618030544 81 0 0.0 2.0 0.00 0.00 0.00 31 1017.2
20210618030214 82 246 0.0 2.0 0.00 0.00 0.00 30 1017.2
20210618025546 82 0 0.0 2.0 0.00 0.00 0.00 30 1017.2
20210618025041 82 219 0.0 2.0 0.00 0.00 0.00 29 1017.2
20210618024630 83 218 0.0 1.0 0.00 0.00 0.00 29 1017.2
20210618024107 83 0 0.0 2.0 0.00 0.00 0.00 28 1017.2
20210618023542 84 218 0.0 3.0 0.00 0.00 0.00 27 1017.3
20210618023127 84 217 0.0 3.0 0.00 0.00 0.00 27 1017.2
20210618022542 85 209 0.0 3.0 0.00 0.00 0.00 29 1017.3
20210618022042 85 174 0.0 4.0 0.00 0.00 0.00 29 1017.2
20210618021554 85 0 1.0 4.0 0.00 0.00 0.00 27 1017.2
20210618021111 85 227 0.0 5.0 0.00 0.00 0.00 26 1017.3
20210618020551 85 161 2.0 5.0 0.00 0.00 0.00 25 1017.4
20210618020157 85 169 1.0 4.0 0.00 0.00 0.00 27 1017.3
20210618015547 85 107 0.0 7.0 0.00 0.00 0.00 26 1017.4
20210618015048 86 115 1.0 7.0 0.00 0.00 0.00 27 1017.4
20210618014744 86 0 0.0 3.0 0.00 0.00 0.00 30 1017.4
20210618014040 86 0 1.0 4.0 0.00 0.00 0.00 29 1017.4
20210618013542 86 0 0.0 4.0 0.00 0.00 0.00 28 1017.4
20210618013108 86 104 1.0 3.0 0.00 0.00 0.00 27 1017.4
20210618012545 87 77 0.0 6.0 0.00 0.00 0.00 29 1017.4
20210618012117 88 42 0.0 6.0 0.00 0.00 0.00 28 1017.5
20210618011612 89 46 1.0 6.0 0.00 0.00 0.00 27 1017.4
20210618011054 90 42 0.0 2.0 0.00 0.00 0.00 25 1017.3
20210618010544 90 71 0.0 2.0 0.00 0.00 0.00 25 1017.3
20210618010400 90 0 0.0 2.0 0.00 0.00 0.00 21 1017.3
20210618005542 90 5 0.0 2.0 0.00 0.00 0.00 25 1017.3
20210618005039 90 0 0.0 2.0 0.00 0.00 0.00 19 1017.5
20210618004619 91 237 0.0 2.0 0.00 0.00 0.00 20 1017.4
20210618004045 91 0 0.0 6.0 0.00 0.00 0.00 22 1017.4
20210618003543 91 0 1.0 6.0 0.00 0.00 0.00 19 1017.3
20210618003106 91 0 0.0 6.0 0.00 0.00 0.00 22 1017.2
20210618002543 91 0 1.0 9.0 0.00 0.00 0.00 22 1017.1
20210618002040 91 162 2.0 9.0 0.00 0.00 0.00 19 1017.0
20210618001603 92 178 2.0 8.0 0.00 0.00 0.00 20 1016.8
20210618001040 92 215 0.0 3.0 0.00 0.00 0.00 20 1016.8
20210618000541 93 0 1.0 7.0 0.00 0.00 0.00 19 1016.8
20210618000102 93 144 1.0 7.0 0.00 0.00 0.00 22 1016.8
20210617235543 94 0 0.0 6.0 0.00 0.00 0.00 21 1016.9
20210617235044 94 170 1.0 6.0 0.00 0.00 0.00 18 1017.0
20210617234645 94 163 1.0 7.0 0.00 0.00 0.00 18 1017.0
20210617234041 94 228 2.0 7.0 0.00 0.00 0.00 19 1017.0
20210617233542 95 167 1.0 8.0 0.00 0.00 0.00 20 1016.8
20210617233059 94 138 2.0 10.0 0.00 0.00 0.00 17 1016.9
20210617232554 94 161 2.0 10.0 0.00 0.00 0.00 18 1016.8
20210617232044 94 125 0.0 8.0 0.00 0.00 0.00 23 1016.6
20210617231635 94 153 3.0 8.0 0.00 0.00 0.00 18 1016.6
20210617231106 94 134 1.0 8.0 0.00 0.00 0.00 18 1016.7
20210617230543 95 121 2.0 8.0 0.00 0.00 0.00 17 1016.6
20210617230130 95 111 1.0 6.0 0.00 0.00 0.00 20 1016.5
20210617225541 95 76 2.0 6.0 0.00 0.00 0.00 18 1016.5
20210617225038 95 79 1.0 8.0 0.00 0.00 0.00 18 1016.5
20210617224636 95 89 2.0 8.0 0.00 0.00 0.00 17 1016.6
20210617224043 96 128 1.0 6.0 0.00 0.00 0.00 21 1016.5
20210617223552 96 147 1.0 6.0 0.00 0.00 0.00 21 1016.5
20210617223053 95 119 1.0 6.0 0.00 0.00 0.00 19 1016.6
20210617222553 95 184 1.0 6.0 0.00 0.00 0.00 19 1016.6
20210617222041 95 169 1.0 5.0 0.00 0.00 0.00 20 1016.5
20210617221609 95 128 2.0 5.0 0.00 0.00 0.00 18 1016.6
20210617221043 95 175 0.0 3.0 0.00 0.00 0.00 20 1016.7
20210617220550 94 153 1.0 6.0 0.00 0.00 0.00 19 1016.7
20210617220203 94 0 1.0 6.0 0.00 0.00 0.00 17 1016.7
20210617215539 95 101 1.0 10.0 0.00 0.00 0.00 19 1016.8
20210617215043 95 165 1.0 10.0 0.00 0.00 0.00 17 1016.8
20210617214618 95 131 1.0 6.0 0.00 0.00 0.00 20 1016.8
20210617214103 95 217 1.0 4.0 0.00 0.00 0.00 18 1017.0
20210617213606 96 111 1.0 6.0 0.00 0.00 0.00 18 1017.0
20210617213205 96 110 2.0 6.0 0.00 0.00 0.00 17 1017.1
20210617212543 97 112 2.0 6.0 0.00 0.00 0.00 16 1017.0
20210617212048 98 89 1.0 4.0 0.00 0.00 0.00 16 1017.0
20210617211803 98 0 1.0 3.0 0.00 0.00 0.00 18 1017.1
20210617211040 98 0 1.0 5.0 0.00 0.00 0.00 17 1017.2
20210617210540 98 122 2.0 5.0 0.00 0.00 0.00 18 1017.3
20210617210133 99 80 1.0 3.0 0.00 0.00 0.00 16 1017.4
20210617205539 98 118 0.0 6.0 0.00 0.00 0.00 16 1017.4
20210617205045 98 147 1.0 6.0 0.00 0.00 0.00 20 1017.3
20210617204547 98 69 0.0 3.0 0.00 0.00 0.00 17 1017.4
20210617204043 98 0 0.0 5.0 0.00 0.00 0.00 19 1017.5
20210617203550 98 129 1.0 5.0 0.00 0.00 0.00 18 1017.5
20210617203124 98 360 1.0 6.0 0.00 0.00 0.00 23 1017.6
20210617202551 97 156 1.0 6.0 0.00 0.00 0.00 21 1017.6
20210617202042 96 165 1.0 6.0 0.00 0.00 0.00 19 1017.8
20210617201630 95 0 1.0 4.0 0.00 0.00 0.00 25 1017.8
20210617201042 94 0 1.0 2.0 0.00 0.00 0.00 19 1017.9
20210617200546 93 103 0.0 2.0 0.00 0.00 0.00 22 1017.9
20210617200121 93 155 0.0 6.0 0.00 0.00 0.00 24 1017.9
20210617195558 93 0 1.0 6.0 0.00 0.00 0.00 22 1018.0
20210617195039 94 114 1.0 4.0 0.00 0.00 0.00 21 1018.1
20210617194602 94 116 1.0 4.0 0.00 0.00 0.00 18 1018.1
20210617194102 95 100 0.0 3.0 0.00 0.00 0.00 21 1018.2
20210617193601 96 100 0.0 3.0 0.00 0.00 0.00 17 1018.2
20210617193112 97 82 0.0 6.0 0.00 0.00 0.00 18 1018.3
20210617192543 97 0 2.0 6.0 0.00 0.00 0.00 20 1018.4
20210617192041 97 281 2.0 5.0 0.00 0.00 0.00 13 1018.4
20210617191630 98 157 1.0 7.0 0.00 0.00 0.00 17 1018.4
20210617191051 98 176 1.0 10.0 0.00 0.00 0.00 16 1018.5
20210617190542 99 246 1.0 10.0 0.00 0.00 0.00 16 1018.6
20210617190104 99 338 3.0 9.0 0.00 0.00 0.00 15 1018.6
20210617185542 100 50 1.0 5.0 0.00 0.00 0.00 21 1018.8
20210617185104 100 208 1.0 6.0 0.00 0.00 0.00 19 1018.9
20210617184625 101 331 2.0 7.0 0.00 0.00 0.00 17 1018.9
20210617184045 101 50 2.0 7.0 0.00 0.00 0.00 18 1018.9
20210617183552 101 69 1.0 6.0 0.00 0.00 0.00 23 1018.9
20210617183345 100 38 2.0 7.0 0.00 0.00 0.00 19 1019.0
20210617182545 100 336 3.0 7.0 0.00 0.00 0.00 19 1018.9
20210617182039 99 25 1.0 7.0 0.00 0.00 0.00 19 1019.1
20210617181606 99 80 2.0 7.0 0.00 0.00 0.00 19 1019.1
20210617181042 100 38 2.0 6.0 0.00 0.00 0.00 20 1019.2
20210617180551 100 48 0.0 5.0 0.00 0.00 0.00 17 1019.3
20210617180105 99 15 2.0 5.0 0.00 0.00 0.00 20 1019.4
20210617175540 99 38 3.0 5.0 0.00 0.00 0.00 23 1019.4
20210617175040 98 31 1.0 7.0 0.00 0.00 0.00 26 1019.4
20210617174701 98 30 2.0 7.0 0.00 0.00 0.00 24 1019.5
20210617174056 98 39 1.0 4.0 0.00 0.00 0.00 24 1019.5
20210617173540 98 352 1.0 7.0 0.00 0.00 0.00 23 1019.5
20210617173201 98 0 1.0 8.0 0.00 0.00 0.00 24 1019.6
20210617172540 97 37 3.0 8.0 0.00 0.00 0.00 21 1019.5
20210617172042 96 53 2.0 5.0 0.00 0.00 0.00 22 1019.6
20210617171608 96 340 2.0 5.0 0.00 0.00 0.00 23 1019.5
20210617171044 96 32 2.0 5.0 0.00 0.00 0.00 22 1019.5
20210617170546 95 25 1.0 4.0 0.00 0.00 0.00 20 1019.6
20210617170115 95 17 0.0 4.0 0.00 0.00 0.00 26 1019.6
20210617165545 94 352 1.0 4.0 0.00 0.00 0.00 26 1019.7
20210617165050 93 32 0.0 3.0 0.00 0.00 0.00 32 1019.8
20210617164613 92 0 0.0 3.0 0.00 0.00 0.00 30 1019.9
20210617164123 91 0 1.0 3.0 0.00 0.00 0.00 30 1019.8
20210617163542 90 40 1.0 3.0 0.00 0.00 0.00 31 1019.9
20210617163107 89 34 1.0 3.0 0.00 0.00 0.00 33 1019.9
20210617162541 88 34 0.0 3.0 0.00 0.00 0.00 34 1020.0
20210617162041 88 0 0.0 3.0 0.00 0.00 0.00 36 1019.9
20210617161625 87 0 0.0 2.0 0.00 0.00 0.00 32 1020.0
20210617161039 86 0 0.0 1.0 0.00 0.00 0.00 32 1020.0
20210617160544 86 0 0.0 2.0 0.00 0.00 0.00 35 1020.0
20210617160122 85 0 0.0 2.0 0.00 0.00 0.00 39 1020.1
20210617155541 84 0 0.0 2.0 0.00 0.00 0.00 43 1020.1
20210617155041 83 0 0.0 1.0 0.00 0.00 0.00 42 1020.1
20210617154617 82 0 0.0 1.0 0.00 0.00 0.00 45 1020.1
20210617154039 81 0 0.0 1.0 0.00 0.00 0.00 44 1020.2
20210617153541 81 0 0.0 1.0 0.00 0.00 0.00 48 1020.2
20210617153158 80 0 0.0 1.0 0.00 0.00 0.00 45 1020.3
20210617152540 79 0 0.0 2.0 0.00 0.00 0.00 42 1020.4
20210617152039 79 0 0.0 2.0 0.00 0.00 0.00 49 1020.4
20210617151610 78 0 0.0 3.0 0.00 0.00 0.00 49 1020.4
20210617151041 78 34 2.0 3.0 0.00 0.00 0.00 53 1020.5
20210617150545 77 0 1.0 3.0 0.00 0.00 0.00 56 1020.4
20210617150157 77 17 0.0 1.0 0.00 0.00 0.00 54 1020.5
20210617145542 76 0 0.0 3.0 0.00 0.00 0.00 57 1020.5
20210617145040 75 0 0.0 3.0 0.00 0.00 0.00 63 1020.5
20210617144640 75 16 0.0 3.0 0.00 0.00 0.00 65 1020.4
20210617144042 74 360 0.0 2.0 0.00 0.00 0.00 63 1020.5
20210617143542 73 23 0.0 2.0 0.00 0.00 0.00 66 1020.4
20210617143054 73 0 1.0 2.0 0.00 0.00 0.00 65 1020.4
20210617142542 72 0 0.0 2.0 0.00 0.00 0.00 62 1020.5
20210617142044 72 0 0.0 2.0 0.00 0.00 0.00 65 1020.4
20210617141611 71 309 1.0 2.0 0.00 0.00 0.00 63 1020.4
20210617141042 71 334 0.0 2.0 0.00 0.00 0.00 64 1020.4
20210617140541 71 0 0.0 1.0 0.00 0.00 0.00 62 1020.4
20210617140046 71 0 0.0 1.0 0.00 0.00 0.00 63 1020.4
20210617135543 70 0 0.0 1.0 0.00 0.00 0.00 61 1020.4
20210617135115 70 0 0.0 2.0 0.00 0.00 0.00 62 1020.5
20210617134607 70 0 0.0 2.0 0.00 0.00 0.00 63 1020.5
20210617134046 69 0 0.0 2.0 0.00 0.00 0.00 57 1020.5
20210617133548 69 0 0.0 2.0 0.00 0.00 0.00 59 1020.4
20210617133134 69 256 0.0 1.0 0.00 0.00 0.00 62 1020.5
20210617132539 69 0 0.0 2.0 0.00 0.00 0.00 61 1020.5
20210617132050 68 0 0.0 2.0 0.00 0.00 0.00 61 1020.5
20210617131634 68 0 0.0 2.0 0.00 0.00 0.00 60 1020.3
20210617131041 67 338 0.0 1.0 0.00 0.00 0.00 58 1020.3
20210617130549 67 0 0.0 2.0 0.00 0.00 0.00 57 1020.4
20210617130114 66 0 1.0 2.0 0.00 0.00 0.00 54 1020.4
20210617125552 65 0 0.0 2.0 0.00 0.00 0.00 56 1020.4
20210617125044 65 294 1.0 2.0 0.00 0.00 0.00 58 1020.2
20210617124641 64 0 0.0 3.0 0.00 0.00 0.00 54 1020.3
20210617124045 64 294 0.0 3.0 0.00 0.00 0.00 55 1020.3
20210617123543 63 272 1.0 4.0 0.00 0.00 0.00 53 1020.2
20210617123125 63 314 0.0 4.0 0.00 0.00 0.00 54 1020.2
20210617122539 62 281 2.0 4.0 0.00 0.00 0.00 55 1020.2
20210617122042 62 0 0.0 3.0 0.00 0.00 0.00 54 1020.2
20210617121600 62 0 0.0 3.0 0.00 0.00 0.00 53 1020.2
20210617121041 61 0 0.0 2.0 0.00 0.00 0.00 52 1020.2
20210617120542 61 360 0.0 3.0 0.00 0.00 0.00 51 1020.2
20210617120137 61 0 1.0 3.0 0.00 0.00 0.00 51 1020.2
20210617115541 61 310 0.0 2.0 0.00 0.00 0.00 52 1020.2
20210617115045 61 325 0.0 2.0 0.00 0.00 0.00 51 1020.2
20210617114601 61 0 0.0 3.0 0.00 0.00 0.00 50 1020.2
20210617114039 61 0 1.0 3.0 0.00 0.00 0.00 48 1020.1
20210617113552 61 0 1.0 3.0 0.00 0.00 0.00 51 1020.1
20210617113148 61 0 0.0 2.0 0.00 0.00 0.00 52 1020.0
20210617112609 61 275 0.0 3.0 0.00 0.00 0.00 51 1020.0
20210617112049 61 0 0.0 3.0 0.00 0.00 0.00 50 1020.0
20210617111628 62 265 0.0 2.0 0.00 0.00 0.00 51 1020.0
20210617111043 62 0 0.0 2.0 0.00 0.00 0.00 50 1020.1
20210617110542 62 0 0.0 2.0 0.00 0.00 0.00 51 1020.2
20210617110310 62 0 0.0 2.0 0.00 0.00 0.00 52 1020.2
20210617105542 62 0 0.0 2.0 0.00 0.00 0.00 51 1020.2
20210617105045 63 327 0.0 1.0 0.00 0.00 0.00 50 1020.2
20210617104613 63 327 0.0 2.0 0.00 0.00 0.00 50 1020.2
20210617104042 63 0 0.0 2.0 0.00 0.00 0.00 48 1020.2
20210617103550 64 327 0.0 2.0 0.00 0.00 0.00 48 1020.2
20210617103117 64 327 0.0 2.0 0.00 0.00 0.00 46 1020.2
20210617102539 64 0 0.0 2.0 0.00 0.00 0.00 47 1020.2
20210617102054 65 289 0.0 3.0 0.00 0.00 0.00 46 1020.2
20210617101635 65 289 1.0 3.0 0.00 0.00 0.00 46 1020.2
20210617101048 66 0 0.0 1.0 0.00 0.00 0.00 44 1020.2
20210617100541 66 0 0.0 2.0 0.00 0.00 0.00 43 1020.2
20210617100209 66 0 0.0 2.0 0.00 0.00 0.00 43 1020.4
20210617095543 67 0 0.0 0.0 0.00 0.00 0.00 42 1020.5